GFSSGP_sfc_thetae_000.txt.gz
Theta_e
319 317 317 312 301 301 297 301 306 304 305 315 317 318 317 320 317 311 337 342 342 340 341 335 343 343 345 347 350 351 351 350 352 351 351 349 343 344 342 340 336 333 336 334 341 344 346 347 347
315 315 311 308 298 295 298 304 302 303 306 311 315 317 318 317 328 329 335 341 342 341 339 337 344 344 342 343 345 348 350 349 349 350 349 346 343 342 342 339 336 334 337 337 340 343 344 347 343
315 315 304 302 299 296 298 303 304 305 308 310 312 323 320 321 327 330 340 341 342 341 341 340 344 344 343 343 345 346 346 347 347 348 347 346 344 341 340 340 337 336 339 343 342 338 343 342 341
311 309 305 299 297 300 301 303 305 305 309 310 313 317 327 332 329 335 338 342 340 341 342 341 343 343 342 341 343 345 345 345 346 347 347 347 341 338 336 335 334 338 339 340 334 333 335 340 339
311 307 299 298 297 300 303 305 307 305 310 312 314 314 321 332 337 336 337 338 338 340 343 341 342 343 343 342 341 342 343 343 343 345 345 344 344 343 339 338 339 341 334 330 330 330 331 338 339
304 306 297 295 297 301 304 307 309 308 311 313 312 312 321 334 334 336 336 336 338 339 342 342 342 342 341 340 339 339 340 341 342 342 342 342 342 341 339 339 340 339 337 334 332 335 337 337 338
303 302 298 298 297 299 301 306 304 305 309 308 315 312 318 326 335 337 335 335 335 337 339 342 342 341 338 336 335 336 338 338 339 340 340 339 339 336 335 335 334 333 333 334 336 336 336 337 337
306 304 298 299 297 297 302 305 307 305 303 309 309 308 313 325 334 335 336 336 339 338 336 339 340 341 338 333 333 333 336 337 337 338 338 339 336 333 331 331 331 331 332 329 327 325 332 334 334
309 300 297 297 298 299 304 302 307 309 306 308 309 312 325 330 333 331 330 330 332 330 334 340 340 341 340 338 334 335 336 336 335 334 335 333 337 333 330 329 330 329 328 328 326 323 325 328 330
305 300 298 302 302 301 303 303 304 304 305 306 309 314 321 327 327 325 323 324 326 325 326 329 335 338 338 335 332 340 338 336 336 336 335 334 333 330 329 329 329 328 326 325 324 323 322 321 320
305 299 302 304 304 304 303 303 306 303 302 307 306 311 315 319 321 322 320 322 320 322 323 324 331 335 338 336 336 336 335 335 334 334 333 331 329 328 327 327 327 326 323 323 322 321 320 319 319
302 304 305 306 306 305 304 306 305 305 305 309 310 313 314 316 317 319 320 321 318 320 320 322 329 332 332 332 330 331 329 329 328 328 329 329 327 325 324 324 323 323 323 322 321 318 317 317 319
304 305 306 307 307 307 307 305 305 305 308 310 311 313 313 315 316 318 321 320 322 320 320 320 324 328 330 328 328 326 324 322 321 323 323 325 324 324 324 322 322 321 322 321 322 320 318 318 319
307 307 306 307 307 307 305 304 305 306 309 309 309 310 312 313 314 315 314 314 315 316 319 320 321 325 325 326 325 323 321 318 318 319 321 323 323 322 322 319 319 318 318 319 320 321 322 321 321
307 303 306 307 305 303 306 301 301 308 309 307 307 309 310 311 312 312 314 314 314 316 317 317 318 321 321 322 321 320 316 315 315 318 319 319 320 316 315 314 314 315 316 316 315 314 314 316 321
304 304 298 304 304 305 303 296 304 308 307 305 306 308 309 310 311 313 314 314 316 318 314 315 313 316 317 318 315 315 314 315 315 318 317 316 316 315 314 313 312 311 312 310 308 307 308 311 313
302 296 298 300 305 303 302 298 304 308 306 305 307 307 308 309 311 312 313 314 315 315 313 313 312 311 314 314 313 313 313 312 314 316 314 314 312 312 310 310 310 309 307 306 305 304 303 302 303
296 296 299 299 303 303 301 301 305 307 307 306 307 308 308 308 310 313 313 315 314 315 313 313 312 312 313 312 312 311 311 311 311 312 312 312 310 309 308 309 308 307 306 305 305 304 304 303 303
300 299 298 301 304 302 301 301 304 306 305 305 306 307 308 309 311 314 315 315 313 314 311 311 310 311 309 309 308 307 307 309 310 310 311 311 310 309 308 307 306 307 305 304 304 303 302 301 303
299 298 298 301 303 302 301 301 304 304 304 305 305 306 307 308 309 311 313 314 313 312 312 310 310 310 309 308 308 308 309 308 309 309 310 310 310 309 308 307 305 305 304 304 304 303 300 301 302
298 298 297 297 301 304 301 299 301 303 304 305 306 307 307 307 307 309 312 312 313 312 312 311 310 310 310 309 308 308 308 307 305 305 307 309 309 310 309 308 306 305 305 303 303 302 301 298 300
295 302 300 299 298 293 301 291 299 301 301 303 305 307 307 308 309 309 311 311 313 312 314 312 311 310 310 310 306 306 303 301 303 304 305 306 309 308 308 308 307 305 305 303 304 303 303 301 297
298 302 301 301 299 298 298 293 298 301 299 301 305 306 307 309 309 308 308 310 311 312 313 312 312 311 310 310 308 306 304 304 305 305 306 305 306 306 306 306 305 304 304 303 302 302 302 301 299
304 302 302 303 298 292 297 295 295 298 300 301 304 306 307 308 308 308 310 310 310 313 313 314 312 310 311 310 309 307 304 305 304 304 302 303 303 303 304 303 301 301 301 300 299 299 299 299 298
302 298 293 292 294 292 298 294 296 303 304 303 303 304 306 308 307 308 308 309 310 311 312 313 312 309 310 310 309 307 306 305 304 304 302 301 299 299 299 299 298 298 297 298 297 296 296 296 296
299 297 293 284 286 288 295 290 296 304 305 305 305 307 307 308 309 308 310 311 311 312 312 311 310 309 309 309 309 308 307 305 304 303 300 298 297 297 298 297 297 297 297 296 296 295 295 295 295
298 296 300 292 290 288 292 297 302 305 304 304 305 306 306 307 308 309 310 310 311 311 311 310 310 310 309 309 309 307 306 303 301 301 299 297 298 297 298 297 296 296 296 295 295 293 293 294 294
300 303 293 295 284 283 290 292 293 300 302 304 305 305 307 308 308 309 309 309 310 310 311 311 311 308 307 307 305 302 301 300 298 298 297 296 296 296 296 295 295 294 294 294 293 292 293 293 293
298 297 298 297 294 286 285 289 302 301 303 304 304 306 306 307 308 308 309 309 309 310 308 308 306 304 304 303 301 299 298 298 297 296 295 295 296 295 294 294 293 293 292 292 291 291 291 291 291
301 298 298 290 289 292 290 290 303 305 306 305 306 306 307 307 307 306 307 308 308 307 307 307 304 303 301 300 298 297 296 296 294 294 295 296 294 295 294 293 293 292 291 291 290 289 290 289 289

GFSSGP_sfc_thetae_003.txt.gz
Theta_e
314 308 309 304 293 290 287 292 296 297 299 305 318 317 316 318 313 310 334 338 338 335 335 339 342 344 345 347 349 350 351 351 352 351 350 348 345 343 342 340 337 335 335 332 333 335 342 343 344
312 310 303 298 290 285 289 293 294 297 300 307 316 312 315 316 328 329 331 338 339 335 336 340 343 344 345 346 347 348 348 349 349 349 347 346 345 344 342 337 336 334 334 332 334 340 339 341 339
313 311 295 292 288 286 289 295 295 299 302 304 313 315 317 318 326 330 336 339 337 335 338 341 342 341 342 345 346 346 347 347 347 347 347 344 344 344 344 338 335 334 334 335 339 336 337 335 333
306 300 296 289 285 291 294 296 299 300 304 313 319 315 324 329 327 332 338 338 335 334 337 340 341 341 342 344 345 345 344 345 345 346 347 344 343 341 341 339 337 335 336 339 339 337 334 334 334
303 296 290 288 288 294 297 299 301 304 309 314 317 310 319 330 332 332 334 337 335 335 337 339 340 341 342 342 341 342 342 342 344 345 344 344 342 339 335 334 334 336 338 337 335 333 331 330 334
295 294 287 287 289 295 297 298 300 301 306 311 312 314 317 331 331 332 332 332 338 337 337 338 340 339 339 339 338 337 338 340 341 342 342 342 342 341 340 341 339 340 337 333 330 330 330 333 333
292 291 288 288 290 293 296 298 297 298 300 305 313 309 315 321 330 331 327 328 332 337 338 336 337 337 336 334 334 335 335 337 339 339 338 337 335 336 336 335 335 335 335 337 336 336 335 337 336
296 292 289 288 290 288 295 297 297 299 294 305 312 307 307 314 330 330 327 328 329 329 331 336 335 334 330 328 331 332 334 335 336 338 338 333 332 333 333 332 332 333 332 331 330 332 333 333 333
297 290 286 289 291 291 294 294 298 300 299 301 303 314 318 322 329 325 324 324 323 328 330 331 332 334 331 329 331 333 334 334 334 335 335 332 329 327 325 329 330 330 331 330 327 328 331 330 329
296 288 289 295 295 292 295 295 296 297 296 298 302 315 320 324 324 321 320 320 318 317 320 324 326 328 330 333 330 331 334 332 331 330 329 329 325 324 325 327 329 327 326 326 326 325 325 323 319
294 291 297 298 301 298 297 299 300 295 294 299 300 306 316 318 319 318 314 318 314 314 315 319 325 326 326 326 330 330 328 329 327 326 325 322 323 322 323 322 322 320 322 320 321 321 320 319 318
295 300 301 299 301 300 298 298 300 295 296 305 303 308 309 310 312 313 312 311 310 312 313 318 322 323 322 321 320 320 324 322 322 323 324 322 320 319 319 317 318 318 318 317 320 316 315 315 317
298 299 302 303 303 301 303 299 299 299 302 305 306 309 306 308 309 311 310 308 308 309 310 315 319 320 322 319 317 315 314 313 313 316 316 318 319 318 318 318 317 318 318 318 316 316 315 314 316
303 303 301 302 302 302 300 299 297 300 300 303 305 305 305 305 307 306 306 306 307 308 310 311 314 317 318 318 315 313 310 310 311 312 315 317 315 314 314 315 316 314 314 314 312 311 312 315 318
304 298 301 301 301 297 297 295 294 302 302 302 303 304 304 305 307 306 307 305 306 307 308 309 309 314 313 316 315 312 309 310 309 312 313 313 314 310 309 307 308 308 311 312 311 310 309 309 312
300 297 292 300 300 300 297 290 296 299 301 300 300 301 303 304 306 305 306 307 306 306 306 307 309 310 309 311 312 310 306 306 308 312 312 312 312 312 309 308 306 305 305 306 302 302 301 303 303
295 289 293 296 299 297 295 292 299 302 300 298 299 299 301 302 303 304 306 305 305 305 305 305 301 303 306 306 306 306 306 305 307 311 310 310 309 309 305 306 305 304 304 302 302 301 300 298 299
290 290 294 292 296 297 295 294 298 300 299 297 297 297 298 300 301 305 304 305 305 304 304 305 304 303 305 305 304 304 303 304 305 308 308 309 307 306 303 305 305 303 302 302 301 300 301 300 299
295 293 291 294 299 296 295 294 297 296 297 297 297 298 299 301 303 306 306 304 304 303 303 303 303 303 303 301 301 300 300 302 303 303 307 307 306 305 303 302 303 303 301 301 300 300 299 298 299
295 293 292 296 300 298 295 295 296 298 297 298 298 299 300 300 302 304 305 303 303 303 303 302 303 303 302 302 301 301 300 301 302 303 304 306 305 305 304 303 300 301 300 299 299 300 298 298 299
293 293 293 293 297 299 295 292 294 297 298 300 301 300 301 300 300 302 304 303 303 302 303 304 303 303 303 302 301 301 301 301 299 300 302 303 305 305 304 303 302 301 300 299 300 298 297 295 298
291 298 297 296 293 288 295 285 292 294 295 298 300 298 299 300 302 302 301 300 303 304 304 305 305 305 304 303 300 300 299 298 299 300 300 302 304 305 305 304 303 302 300 300 300 302 299 298 295
295 300 297 297 293 290 292 287 289 294 293 295 297 299 299 301 301 301 300 301 301 304 304 305 305 305 306 304 302 300 298 300 301 301 301 300 303 304 304 302 302 301 300 299 297 297 297 298 297
301 298 297 297 293 284 291 289 288 292 294 296 299 299 300 300 300 302 302 304 303 305 304 304 304 305 305 305 304 302 301 301 300 300 299 300 300 299 299 298 297 296 296 296 296 296 294 294 295
297 293 282 281 281 281 293 289 290 297 298 298 297 298 299 299 300 302 300 302 303 304 304 304 305 305 305 304 304 304 303 301 300 300 297 297 295 296 295 296 296 296 296 296 296 295 294 294 293
294 293 282 278 277 281 292 286 291 299 300 301 300 299 300 301 302 301 301 303 303 304 304 304 305 306 305 304 303 304 303 303 302 301 298 294 294 295 295 295 295 295 295 295 295 294 293 293 293
295 289 296 286 280 279 286 292 297 298 301 303 301 302 301 300 303 301 302 303 303 303 304 302 302 304 304 302 301 299 299 297 295 293 294 294 295 295 294 294 293 294 294 295 294 293 292 292 292
297 299 287 284 278 278 284 286 288 295 298 300 298 299 300 301 301 302 302 303 303 303 302 302 302 301 300 297 296 295 294 293 294 295 293 293 293 293 293 293 294 294 294 293 293 292 292 291 291
293 290 292 295 287 282 280 284 296 297 298 299 301 302 301 300 300 301 302 304 302 302 301 301 302 301 296 295 294 293 293 292 291 292 292 292 292 293 293 293 293 293 292 292 292 291 290 290 290
297 296 296 286 286 284 282 286 300 299 300 302 302 301 301 300 300 301 301 302 301 301 302 302 302 297 295 294 292 292 291 290 290 291 292 292 291 293 292 292 292 292 292 291 290 289 288 288 287

GFSSGP_sfc_thetae_006.txt.gz
Theta_e
312 306 304 301 292 288 284 289 293 295 300 315 320 317 314 315 313 307 332 335 333 331 335 338 342 345 348 349 349 350 350 351 351 350 350 347 345 344 344 344 342 335 339 337 337 338 341 342 338
309 308 299 295 288 284 287 292 293 297 310 315 315 319 318 317 327 328 330 334 333 333 337 338 342 344 346 346 347 347 348 348 350 349 349 347 345 344 344 342 335 334 332 337 341 342 338 340 333
307 308 294 290 286 286 288 294 294 302 311 307 316 319 321 317 328 330 334 335 334 334 337 338 339 342 345 345 345 346 345 346 347 346 346 346 345 344 343 338 335 334 334 337 340 342 340 337 335
304 298 294 288 284 289 292 295 297 299 313 316 317 314 323 326 326 333 336 334 332 332 334 337 338 340 344 345 344 344 344 344 345 346 345 344 343 342 342 338 335 334 335 336 339 336 336 336 333
300 293 288 285 287 292 294 297 301 307 310 313 313 308 316 325 331 335 335 335 332 331 335 336 337 340 342 342 342 342 342 343 343 344 344 343 340 338 335 333 336 336 337 337 337 339 337 335 334
294 292 286 284 287 293 294 297 300 304 309 311 312 312 312 327 327 332 335 336 336 333 335 336 339 339 339 339 339 338 339 340 341 341 341 342 341 340 340 339 337 337 339 334 333 332 335 331 334
292 288 285 285 287 291 294 296 296 296 296 304 312 309 315 319 327 329 332 333 336 335 334 334 335 336 336 335 334 334 336 338 339 338 338 337 336 336 336 336 336 336 336 336 333 333 332 332 335
293 290 285 284 288 288 294 295 296 297 293 311 312 306 304 319 325 328 325 330 332 335 334 331 331 331 327 326 332 332 333 335 337 336 335 333 333 333 333 333 334 333 333 333 332 334 334 334 334
294 288 285 286 289 290 293 293 297 299 298 299 306 311 313 319 327 324 322 322 323 330 332 332 331 331 326 324 329 332 334 334 334 336 333 329 327 326 326 328 331 331 330 328 327 327 328 327 326
292 286 288 293 293 289 292 293 294 295 297 298 310 313 318 325 323 322 319 319 318 321 323 325 328 329 328 330 329 328 332 330 329 330 330 328 324 322 324 327 329 327 326 326 326 326 325 322 318
296 291 294 296 296 294 294 297 298 294 293 298 308 310 317 320 320 320 318 319 315 315 318 322 324 324 322 325 327 328 327 327 327 326 325 322 321 321 321 319 320 317 321 317 318 317 317 316 316
293 297 298 297 297 297 295 295 297 298 297 303 307 315 316 318 318 318 312 314 311 311 314 319 321 321 319 318 325 325 324 325 323 323 322 320 318 317 317 316 317 315 315 315 314 314 314 312 313
296 297 299 300 300 298 300 297 297 296 299 302 305 308 309 311 310 310 311 310 309 309 312 316 319 320 319 316 314 313 313 315 314 315 316 320 318 316 317 316 314 315 315 314 313 316 318 317 317
301 300 299 300 299 299 298 297 296 299 297 301 305 304 304 305 307 306 304 305 306 308 310 315 316 318 319 315 313 310 310 309 310 312 314 317 316 315 315 314 315 313 312 311 309 308 307 308 310
301 297 299 300 298 297 296 292 293 298 299 300 301 303 304 305 306 306 306 304 305 306 308 311 313 314 313 315 313 310 308 308 309 310 312 314 312 309 309 308 309 310 310 310 309 307 306 305 307
298 295 290 297 299 298 294 289 297 296 298 298 299 300 302 303 305 305 305 305 304 305 307 307 312 311 310 312 312 311 308 306 307 309 310 311 312 310 307 306 305 304 305 307 300 300 299 298 298
292 287 289 294 298 295 293 290 297 298 298 298 297 297 299 299 301 302 303 302 303 305 304 301 306 306 305 305 306 305 306 303 305 309 309 310 310 309 306 306 304 302 303 301 300 299 298 297 297
287 288 291 289 295 296 293 293 296 297 296 296 295 296 298 300 301 303 303 303 302 302 303 302 300 302 304 303 302 301 302 302 302 307 308 309 308 307 303 304 304 302 301 300 299 298 299 298 297
293 290 289 292 296 295 293 293 296 296 293 294 295 296 297 299 300 301 302 302 301 301 302 302 302 301 301 300 299 298 299 300 301 302 308 308 307 306 302 302 303 303 300 300 299 298 298 296 296
293 291 290 294 297 296 294 293 292 294 293 295 296 296 297 298 300 302 301 299 300 300 301 301 301 301 301 299 299 300 298 299 301 301 302 306 306 304 303 301 301 301 300 299 299 299 297 296 297
291 291 291 292 295 295 294 291 292 295 296 297 297 297 298 298 299 301 302 300 299 300 301 301 301 301 301 301 300 299 298 298 298 299 300 302 305 305 303 301 301 299 299 298 297 297 296 294 296
289 295 295 294 291 286 293 284 290 292 293 296 297 296 297 299 300 300 299 299 300 301 300 301 302 302 302 301 299 298 300 299 301 302 299 301 304 304 303 302 301 299 299 298 298 298 297 296 293
293 297 296 295 290 288 290 286 289 293 292 294 295 297 296 297 299 298 298 299 300 302 302 302 302 303 304 303 301 299 299 300 301 298 297 298 300 302 303 302 301 299 299 297 295 295 293 294 293
299 296 295 294 290 282 289 287 286 290 293 294 296 297 299 297 298 300 300 300 301 302 302 303 303 303 304 303 303 300 299 300 298 299 298 298 296 296 298 298 296 296 295 295 294 294 292 292 293
295 290 281 280 279 280 291 287 288 293 296 297 297 297 297 298 299 299 299 300 301 300 301 302 302 304 305 303 302 302 301 301 299 299 299 298 296 295 294 295 295 294 294 294 293 295 295 293 292
293 291 281 277 276 280 290 284 289 296 297 297 298 298 300 298 299 299 300 301 301 302 301 302 303 302 302 302 302 301 301 300 300 298 297 294 295 294 294 294 294 295 295 294 295 296 295 294 291
294 288 293 284 277 278 284 290 294 295 299 299 297 299 299 299 299 300 301 301 300 300 300 301 300 301 302 300 297 295 294 295 292 292 292 293 293 294 293 295 295 296 297 297 294 292 291 292 291
295 296 286 284 275 278 283 285 287 293 296 299 297 296 298 298 299 300 300 301 301 300 301 301 301 301 300 296 294 293 291 292 292 291 291 291 293 295 296 297 297 297 295 294 293 291 290 290 290
291 289 291 292 285 279 279 283 293 296 297 298 299 298 297 297 297 299 301 303 303 303 302 301 299 299 294 293 293 292 290 291 290 290 290 291 292 293 294 294 293 293 293 292 290 289 289 288 288
295 293 292 281 284 282 281 285 299 297 299 298 297 298 298 297 298 299 300 301 300 300 299 299 299 294 293 293 292 291 290 289 288 289 290 291 291 292 292 292 292 291 291 290 289 288 288 286 285

GFSSGP_sfc_thetae_012.txt.gz
Theta_e
312 304 301 299 292 288 283 287 290 295 309 315 316 312 311 313 309 300 332 330 330 331 334 339 345 347 348 349 350 351 351 351 349 348 347 346 345 345 345 341 338 338 338 338 337 341 344 341 342
311 304 298 293 287 283 286 291 300 303 314 317 317 316 315 313 323 325 326 328 330 332 334 338 344 344 345 346 347 348 349 350 350 349 348 346 344 344 343 338 337 336 337 339 339 339 342 341 340
305 299 293 289 284 283 286 290 304 310 314 310 315 319 317 317 326 327 329 330 332 331 332 338 341 342 343 343 344 344 345 346 347 348 347 346 345 343 342 336 337 334 335 337 338 340 340 340 336
300 296 292 288 283 286 289 293 308 309 310 316 316 313 319 324 328 330 330 331 329 327 328 336 339 340 342 342 342 342 342 344 344 344 344 344 344 343 341 339 336 334 336 337 339 339 338 336 336
294 291 286 285 285 291 295 299 303 305 307 308 311 311 315 324 330 329 329 330 326 326 327 332 337 339 341 341 340 341 341 341 342 343 343 342 341 339 337 336 337 337 336 338 339 338 337 336 335
293 290 284 282 285 289 293 297 304 305 306 310 311 311 311 325 328 329 330 327 328 327 328 329 337 338 339 340 338 339 339 339 339 340 341 341 340 339 338 336 334 335 337 338 335 334 334 332 332
291 286 283 282 286 288 291 292 293 298 300 303 313 309 313 322 328 330 329 326 326 328 328 328 329 333 335 334 335 335 336 337 337 336 336 336 336 336 335 336 336 335 335 335 334 333 334 334 333
290 289 283 283 285 285 291 293 293 294 297 309 310 309 310 320 327 329 331 328 327 327 327 326 326 328 326 325 332 333 334 335 335 335 333 332 332 332 332 330 332 332 331 330 329 329 328 327 326
290 286 284 285 286 289 291 294 292 295 302 299 306 311 311 324 325 324 323 325 325 328 327 326 326 325 322 321 326 332 334 334 334 333 332 326 323 321 321 329 330 329 328 327 327 326 325 323 322
290 286 287 290 290 293 290 291 292 295 300 305 307 312 318 322 322 322 322 323 324 325 327 326 326 325 323 325 323 324 327 326 327 328 325 323 320 319 322 324 327 325 325 325 324 323 321 316 313
294 289 292 293 292 291 292 293 294 295 295 304 304 310 317 318 317 320 322 323 324 325 326 328 326 325 324 324 322 322 323 323 323 324 324 322 321 319 317 316 316 314 319 313 315 313 313 313 312
292 294 294 293 295 294 292 297 294 291 295 303 307 313 317 318 318 317 318 320 320 323 326 325 325 324 321 322 323 322 323 322 322 322 321 319 317 315 315 315 314 313 312 312 312 312 312 312 313
294 294 296 296 297 294 296 293 293 295 298 297 306 314 317 318 317 315 317 316 316 319 320 319 319 319 316 319 320 321 321 322 321 320 319 318 315 314 314 313 312 312 312 312 311 309 308 308 308
297 296 296 296 295 296 295 294 293 296 295 296 307 308 314 316 317 311 312 312 312 314 314 316 316 317 314 313 313 315 315 317 316 316 317 317 316 314 313 313 312 311 311 310 308 305 304 302 304
298 294 294 296 295 294 294 291 292 295 295 295 298 307 310 313 312 311 310 310 312 309 311 313 315 315 313 312 310 308 309 309 309 311 311 312 315 314 313 312 312 312 310 308 306 304 303 300 301
292 290 287 294 295 293 292 288 295 293 293 296 295 301 306 309 307 304 304 306 307 306 309 312 315 313 312 311 311 309 307 306 305 307 308 310 313 312 309 309 309 310 308 307 305 299 298 297 297
289 284 286 290 295 295 293 290 294 293 296 295 293 295 299 298 298 299 302 302 303 305 308 309 309 310 309 308 309 308 307 305 304 304 306 308 309 310 306 305 305 306 304 304 304 298 297 295 295
284 284 288 286 293 294 291 290 294 296 294 294 291 292 295 295 296 299 299 300 300 303 305 305 305 307 305 302 301 301 300 301 302 301 303 307 308 308 307 305 304 303 300 299 298 297 297 296 296
289 287 286 288 292 293 289 290 292 291 291 291 289 292 295 296 296 297 298 299 300 301 300 300 301 301 300 299 299 298 299 299 300 300 302 304 307 308 307 305 304 303 301 300 299 297 296 295 295
290 287 286 291 293 292 291 291 291 293 291 291 292 294 295 296 296 298 298 296 299 300 300 299 299 298 298 298 297 297 296 297 298 299 300 301 303 306 307 305 303 302 302 298 298 296 295 295 295
289 287 287 289 291 291 290 287 290 292 294 294 294 293 295 296 297 297 298 297 296 297 298 298 298 298 298 299 298 298 297 298 297 298 298 300 301 303 305 306 304 302 302 301 299 298 295 295 294
287 291 291 290 288 284 289 282 288 290 290 293 293 293 293 294 296 298 298 296 296 297 297 298 300 300 301 300 299 298 296 296 299 299 299 300 300 300 303 305 304 302 300 300 296 297 296 294 292
291 294 291 291 287 286 287 283 287 290 289 290 291 294 293 295 296 295 295 297 298 298 298 299 300 301 301 300 300 299 299 300 300 299 298 299 299 298 299 301 301 299 297 297 298 293 293 294 292
296 292 290 289 287 281 285 284 284 287 289 291 293 294 296 295 295 298 297 299 298 298 298 299 300 300 301 300 300 298 296 296 296 297 297 297 297 295 295 297 296 293 293 292 293 295 295 294 294
294 287 279 278 278 278 287 284 285 291 292 293 293 296 296 296 295 295 296 297 298 298 298 300 299 300 300 302 298 295 295 294 294 295 296 296 294 290 290 292 293 293 293 294 295 295 296 295 294
290 288 279 275 274 278 286 282 287 293 294 297 297 295 296 296 297 297 297 297 297 298 299 299 300 300 300 298 295 294 295 294 294 294 293 292 290 290 292 293 294 294 294 295 297 296 295 294 292
290 286 290 282 275 276 282 287 292 293 295 295 296 295 294 295 296 297 298 298 298 298 299 298 298 298 299 296 293 293 293 293 292 291 290 289 290 293 293 293 294 294 297 297 296 294 292 292 292
293 294 284 282 273 275 281 282 284 290 292 294 292 293 294 296 297 298 298 299 300 299 299 298 298 298 298 293 293 295 293 294 291 289 289 289 291 293 293 293 293 293 293 295 295 294 293 292 291
290 287 288 287 283 275 276 281 290 290 292 292 293 294 294 295 296 297 298 299 299 298 299 298 298 297 297 293 293 293 294 293 290 287 288 289 291 292 292 292 292 293 292 292 291 290 289 288 288
291 289 288 279 279 280 277 281 292 293 293 294 293 295 296 296 297 297 298 298 298 298 298 298 297 297 295 293 294 294 293 289 287 287 288 289 290 291 290 291 290 290 289 289 288 287 287 286 284

GFSSGP_sfc_thetae_018.txt.gz
Theta_e
317 316 319 315 306 309 303 304 314 315 316 322 323 319 319 323 317 314 338 339 335 337 344 346 347 347 349 351 350 350 349 349 348 347 347 347 347 344 342 339 339 339 341 341 341 341 342 343 341
318 312 314 313 303 300 301 308 309 316 321 323 323 321 318 316 327 331 334 338 335 337 341 344 344 346 347 347 349 350 350 349 348 348 346 345 344 343 341 340 338 338 338 339 341 342 342 341 338
314 312 311 307 305 300 301 309 316 320 321 321 320 325 322 320 328 331 336 334 333 336 340 344 342 343 344 344 345 345 346 347 347 347 346 345 344 343 341 340 339 337 336 337 340 341 340 338 336
313 311 312 304 301 304 309 313 317 318 321 323 319 316 326 333 331 335 337 334 330 332 335 339 340 340 342 342 341 342 343 344 344 344 345 345 344 342 341 339 337 337 337 339 340 338 336 334 336
313 311 305 302 303 307 313 317 318 315 317 320 320 316 319 332 338 338 338 335 329 330 334 336 338 339 341 340 340 340 340 341 342 342 342 341 340 340 338 336 336 337 337 338 336 336 333 333 333
309 313 303 300 303 308 313 317 314 312 315 318 316 315 319 334 335 337 338 334 330 331 335 335 337 339 339 339 339 339 339 339 339 340 340 340 339 339 338 339 338 337 337 336 335 335 335 335 333
307 307 302 302 302 305 307 311 310 310 312 312 317 312 321 328 333 336 335 333 331 331 333 336 337 337 336 336 336 337 338 337 337 336 336 336 335 335 335 336 335 334 334 333 332 331 330 330 328
308 306 300 301 299 299 303 305 309 308 310 321 321 310 315 327 335 336 334 332 332 334 334 337 338 338 339 338 333 335 336 336 335 334 333 333 333 332 330 331 332 332 331 330 329 328 327 326 325
307 302 298 298 299 300 304 303 306 312 312 313 316 318 323 332 336 334 332 331 333 334 338 339 339 340 340 338 335 332 334 336 335 335 331 331 339 337 333 329 329 328 328 327 326 325 323 321 322
307 302 299 302 303 303 304 304 305 306 306 309 314 321 328 334 334 333 331 330 333 335 338 340 342 341 341 335 339 339 338 340 341 340 340 339 340 338 332 330 326 325 324 323 322 322 321 322 326
305 301 303 303 304 306 304 304 306 304 303 307 308 317 328 331 333 332 331 328 331 335 337 340 342 343 341 339 338 336 337 339 340 341 340 340 338 338 337 335 333 333 326 328 325 326 325 325 325
301 304 304 303 305 304 303 306 304 306 306 310 313 319 326 327 328 328 327 327 329 333 337 341 342 342 342 338 337 337 335 337 336 338 340 339 335 335 334 331 330 330 329 328 326 326 328 326 324
305 305 306 306 305 305 305 305 305 306 309 310 315 321 322 323 325 328 329 329 331 333 337 341 344 343 339 338 337 337 337 336 337 336 335 338 334 332 331 329 328 327 326 325 325 325 324 322 319
307 307 306 306 306 306 304 305 306 307 309 309 312 317 321 322 323 325 329 329 333 334 337 342 343 343 337 333 335 336 337 334 335 333 332 336 335 331 328 326 324 324 324 324 324 324 323 319 318
307 304 306 305 306 305 305 303 303 307 307 307 309 313 319 321 323 324 326 328 331 333 335 339 341 337 333 332 331 331 332 331 329 328 330 332 332 329 328 324 323 323 324 326 326 324 323 320 317
303 304 300 304 306 306 307 300 306 309 308 308 309 310 316 320 323 325 328 329 329 330 331 336 335 332 332 329 330 329 328 327 326 326 326 327 327 327 326 323 323 324 324 323 322 321 319 319 317
301 297 297 300 305 305 304 301 307 308 306 308 310 310 311 317 323 325 324 325 326 326 327 331 334 330 329 328 327 328 327 326 325 326 323 323 324 324 324 322 322 324 322 321 321 320 320 317 315
296 296 297 297 302 303 302 302 305 306 305 306 308 309 309 314 319 320 319 317 318 322 325 330 330 326 326 327 326 323 321 321 321 320 320 320 319 320 320 320 321 322 321 320 319 319 319 318 316
299 298 297 299 302 302 302 302 302 305 306 306 307 307 310 314 314 314 315 316 317 322 323 323 323 320 322 322 317 317 317 317 317 318 318 319 319 318 319 318 318 319 318 319 320 318 317 317 317
299 297 297 300 301 302 302 300 302 304 304 306 307 309 310 311 312 313 315 317 317 318 317 316 314 314 314 317 317 316 316 317 317 318 317 317 316 316 314 315 315 315 315 316 317 317 316 316 316
300 297 297 297 301 302 301 300 300 303 305 306 307 309 309 310 310 311 312 314 315 315 315 314 314 315 316 316 317 317 317 317 314 312 312 313 313 313 313 313 313 314 314 312 314 315 314 312 315
296 300 300 299 298 296 301 294 298 300 302 304 305 307 308 309 310 310 311 312 314 315 316 315 315 315 315 315 314 313 311 309 310 311 311 311 312 311 311 311 312 312 312 311 312 312 313 312 310
299 302 300 299 299 298 298 296 298 301 299 301 305 307 308 309 309 310 311 312 313 315 316 316 315 314 314 314 312 312 310 311 311 311 310 311 310 309 309 309 310 310 311 311 310 309 309 309 306
303 300 300 301 300 293 296 295 296 299 298 301 305 307 309 309 309 309 311 312 313 315 316 315 313 312 313 313 312 311 310 308 307 308 307 306 306 307 308 307 308 309 308 308 307 303 300 300 299
303 299 294 292 292 291 296 294 296 299 302 303 304 306 308 310 310 310 310 311 312 313 314 313 312 311 312 312 310 308 309 309 308 307 305 304 304 304 306 306 307 308 306 303 302 300 298 296 294
299 299 293 284 288 291 295 291 296 302 304 305 305 306 307 308 309 309 309 311 311 312 312 312 312 310 309 309 309 309 309 309 307 306 305 304 304 304 305 306 307 306 304 303 300 298 296 295 295
299 296 299 292 287 290 294 296 300 302 302 303 303 304 305 307 307 308 310 311 312 312 312 312 312 311 311 310 310 310 309 308 305 305 304 303 304 303 305 304 303 303 302 301 300 299 298 298 297
301 301 295 297 286 282 290 291 294 298 301 301 303 303 305 307 308 309 310 311 311 312 313 313 312 310 311 310 309 307 307 306 304 302 301 301 302 303 303 302 301 299 298 298 297 296 297 297 296
299 298 296 296 294 287 284 289 301 299 301 300 303 303 305 306 308 308 309 310 310 312 311 310 310 310 309 308 307 306 304 302 301 300 300 301 302 301 300 299 298 297 297 296 297 295 295 294 294
300 297 295 291 285 291 289 289 301 302 302 302 303 303 305 307 307 308 309 309 309 309 308 307 307 306 306 306 304 303 302 300 300 299 299 300 299 299 298 298 297 297 296 295 294 293 293 292 291

GFSSGP_sfc_thetae_021.txt.gz
Theta_e
324 319 320 317 306 308 306 308 315 313 315 322 321 319 318 322 320 315 337 336 340 343 346 347 347 349 351 350 350 349 349 349 348 348 347 347 346 344 342 340 339 340 341 342 343 343 345 342 340
321 316 316 313 304 302 304 310 311 315 318 319 319 318 317 317 329 331 332 334 338 341 344 346 345 346 347 348 349 350 350 349 348 347 346 346 345 343 341 340 339 339 339 339 341 342 342 339 337
320 317 311 307 306 303 303 309 314 317 319 318 316 321 321 319 327 331 333 334 336 338 342 344 343 343 345 345 345 346 347 348 347 347 346 344 343 342 342 341 339 337 338 340 340 341 340 338 337
315 313 311 305 305 307 309 313 316 315 319 319 317 315 326 331 329 332 333 332 333 334 338 339 340 341 342 341 342 343 343 344 344 345 346 345 344 343 341 339 339 339 339 340 338 337 335 334 335
315 313 306 304 305 309 313 315 316 314 316 316 316 313 321 333 335 333 331 328 328 329 332 334 338 341 340 340 340 340 340 341 342 342 342 341 341 340 339 337 337 338 339 338 337 337 334 333 334
309 313 304 301 304 309 313 315 314 313 314 313 314 315 323 333 332 333 332 328 328 329 332 332 337 340 340 339 339 339 339 339 339 340 340 340 339 338 338 338 338 337 336 335 335 336 335 334 332
307 309 304 304 304 306 309 313 310 311 311 311 314 312 322 327 332 332 330 328 327 330 332 333 335 336 337 337 337 338 338 337 336 336 336 336 336 335 336 335 335 334 333 333 332 331 330 329 327
311 310 303 304 303 302 307 309 311 310 312 316 318 310 315 325 331 330 329 328 329 331 333 335 336 336 338 337 335 336 337 336 335 334 333 333 334 333 332 334 332 332 331 330 329 328 327 327 326
312 304 300 300 301 301 306 305 308 311 311 312 313 318 322 329 330 329 327 327 329 331 336 336 335 335 335 333 334 333 336 336 335 335 333 332 337 336 334 330 330 328 328 327 326 325 325 325 325
307 304 301 305 305 304 305 306 306 308 308 308 313 318 327 329 328 326 324 325 328 331 333 337 339 337 334 330 334 335 333 336 336 337 337 335 336 336 332 331 329 328 327 327 326 325 325 324 325
307 303 304 304 306 307 305 304 306 306 305 309 310 314 323 326 327 326 326 325 326 331 332 335 342 340 337 334 331 333 333 334 335 337 337 336 335 336 333 333 332 333 328 329 326 326 326 326 325
303 305 305 305 306 305 304 307 305 306 308 311 313 318 322 323 324 325 325 325 326 328 330 335 343 342 338 334 332 331 331 333 333 335 335 334 332 332 332 328 328 327 325 326 326 325 326 327 325
304 305 306 306 306 306 307 305 305 306 310 311 314 318 320 323 324 325 326 327 327 327 330 334 341 345 338 336 333 333 333 333 334 334 332 332 330 330 328 327 326 325 324 324 324 323 323 323 323
308 308 308 308 307 307 306 306 308 308 311 310 313 315 319 320 322 324 326 326 327 328 330 334 338 344 339 331 333 332 334 333 332 331 329 330 330 331 328 326 324 324 323 323 323 323 322 322 321
309 305 307 308 309 307 309 304 305 310 310 310 311 313 317 319 321 321 325 326 327 328 330 333 338 342 338 331 330 329 329 327 328 328 329 328 328 327 327 324 324 323 325 329 325 323 323 321 321
305 306 302 306 308 308 308 302 308 311 311 310 311 312 314 318 319 322 324 325 327 328 327 331 336 339 336 330 329 328 328 326 325 326 326 326 326 326 326 323 323 325 325 323 322 321 320 320 319
304 299 299 302 307 306 306 303 309 311 310 309 311 312 313 316 320 323 326 326 326 326 327 329 336 336 333 330 327 328 327 325 325 326 324 323 324 324 323 322 322 326 323 324 323 321 322 319 319
298 298 299 299 304 304 303 303 308 309 308 309 311 312 313 314 318 324 322 323 322 326 326 329 333 333 329 328 327 323 322 321 322 321 321 322 322 322 321 321 321 322 320 321 321 322 321 321 320
301 300 299 302 304 303 303 303 305 308 309 309 310 310 311 314 320 319 319 320 323 326 327 329 328 325 324 322 319 318 318 319 319 320 321 321 320 319 319 317 318 319 316 319 321 320 319 318 321
302 300 300 302 304 303 303 303 305 307 307 310 310 312 313 314 314 316 318 320 320 320 321 320 319 318 318 319 318 319 318 318 319 320 319 318 317 316 315 316 314 316 314 317 318 318 315 316 319
302 300 300 299 303 305 303 301 302 306 308 309 310 311 312 312 312 313 315 317 319 318 318 318 318 318 318 318 318 318 318 318 316 316 316 316 316 315 314 314 313 314 314 313 315 315 314 311 314
299 303 302 301 300 297 304 296 301 304 304 306 308 310 310 311 312 313 314 315 317 318 319 318 317 317 317 318 315 315 313 312 314 315 316 315 315 314 312 311 311 311 312 313 313 311 312 311 308
301 305 302 302 301 300 300 297 300 303 301 304 307 309 310 311 312 313 314 315 316 318 319 318 317 316 316 316 315 314 313 314 314 313 312 312 311 310 309 309 310 310 310 310 310 310 308 308 306
306 304 303 303 302 294 299 297 298 301 302 304 307 309 310 312 312 312 314 314 316 318 318 317 316 315 316 316 316 314 312 311 309 309 308 307 308 308 308 307 308 309 309 308 307 304 302 300 300
305 302 295 293 294 293 299 296 299 303 304 306 306 308 310 312 312 312 312 313 314 315 316 316 315 314 315 314 313 312 311 310 309 308 307 306 305 305 305 307 307 307 307 304 303 302 301 299 296
301 301 295 286 290 293 298 292 299 305 307 307 307 308 309 310 311 311 312 313 314 314 315 315 315 314 314 314 313 313 313 310 309 308 306 304 303 304 306 306 306 304 304 303 302 301 300 300 299
301 298 301 295 293 292 295 299 303 305 305 305 306 307 308 308 309 310 312 313 313 314 314 314 314 313 312 313 313 312 310 309 307 306 304 303 304 303 304 305 304 303 301 300 299 299 299 298 298
303 304 297 298 287 284 291 293 295 300 302 305 304 305 307 308 309 311 311 312 312 313 313 314 313 311 311 310 309 309 308 307 305 303 302 302 303 304 303 302 302 299 299 299 298 298 298 297 297
301 300 298 297 295 288 286 291 302 301 302 302 304 306 307 308 309 309 310 310 311 312 311 310 310 309 308 308 307 306 305 304 303 302 301 302 302 301 300 300 298 299 297 297 296 296 295 295 295
302 299 298 292 288 293 291 290 303 303 304 304 305 306 307 308 308 308 308 309 309 309 309 308 308 306 306 305 304 303 303 303 302 301 301 301 299 300 300 299 297 297 296 296 295 294 294 293 293

GFSSGP_sfc_thetae_024.txt.gz
Theta_e
321 316 316 314 303 303 300 307 315 313 314 318 319 316 316 321 320 313 333 339 344 342 344 346 348 350 351 351 352 351 351 350 350 350 349 347 345 343 343 342 342 342 342 342 343 344 344 341 340
316 317 315 309 300 298 302 311 310 313 315 316 318 317 318 317 327 326 328 338 341 343 343 343 345 347 349 349 350 351 350 350 349 348 348 347 344 343 342 341 340 340 340 341 343 343 341 340 338
319 316 307 304 301 298 302 311 313 314 316 316 315 322 320 319 327 326 332 336 338 340 341 341 342 344 345 346 347 348 347 348 349 348 347 346 344 343 343 341 340 340 340 341 341 340 339 338 337
313 311 308 300 299 306 307 312 313 313 317 318 317 315 323 328 326 328 332 334 334 336 337 337 339 341 343 343 344 344 344 345 346 346 346 345 344 342 340 339 339 339 340 339 338 336 334 334 334
315 309 301 301 304 309 312 314 314 312 313 314 316 316 320 327 329 328 328 328 328 330 332 334 338 341 342 342 341 342 342 343 343 343 342 342 341 340 339 339 339 339 338 337 337 336 335 335 335
305 308 299 299 304 309 312 314 314 314 314 312 314 318 321 328 326 325 325 326 326 327 329 331 339 340 340 340 340 340 340 340 341 341 340 339 339 339 338 337 337 336 335 335 335 335 334 332 331
304 302 299 303 303 305 310 313 310 311 311 311 314 314 321 325 328 327 324 325 327 328 329 331 333 336 338 337 337 337 337 337 337 337 337 337 337 337 337 336 335 334 333 333 332 331 330 329 328
307 304 300 304 301 302 307 310 311 310 309 314 317 311 314 324 328 326 324 324 326 329 330 332 333 334 334 334 335 336 336 336 335 335 335 335 334 335 336 334 333 331 330 329 328 328 328 329 329
311 303 300 301 303 301 306 304 308 311 310 312 316 317 323 327 327 324 322 323 325 328 334 334 332 334 336 334 334 335 336 335 335 334 333 331 334 333 334 331 332 330 329 329 328 327 327 327 327
305 301 300 304 305 303 304 305 305 307 307 308 314 321 325 324 324 322 321 321 325 329 331 335 335 334 332 328 332 336 335 335 336 336 335 335 333 333 331 332 331 331 330 330 329 328 327 326 320
306 301 304 303 305 306 304 304 307 306 303 308 309 318 322 322 323 322 321 323 325 329 330 335 340 337 337 334 330 333 332 334 337 338 333 335 332 335 332 331 328 328 329 327 326 324 322 324 322
302 305 304 304 306 305 303 305 304 306 307 311 313 316 322 321 321 322 323 323 324 328 330 337 340 340 336 334 332 331 331 332 332 332 333 331 330 330 327 326 324 323 322 322 321 321 323 321 323
303 303 304 305 305 306 307 304 305 305 309 312 315 317 320 321 322 324 325 324 325 325 329 333 340 342 339 334 334 332 331 333 331 331 331 330 328 327 327 325 324 322 321 319 320 318 319 319 320
306 305 305 306 306 306 304 305 306 307 309 309 312 315 318 321 322 323 324 325 325 327 330 334 338 343 339 333 331 331 332 332 332 329 328 328 327 327 325 323 323 321 321 320 319 318 319 318 318
308 304 306 306 307 305 307 303 303 308 310 308 309 312 316 318 320 322 324 325 325 326 330 334 334 341 339 332 330 328 328 325 325 327 326 325 325 324 323 322 321 321 322 321 320 319 318 318 318
304 305 300 305 307 308 306 299 306 310 308 307 309 310 312 317 318 321 324 327 328 327 325 329 333 340 338 333 329 326 326 325 324 324 324 324 324 324 322 321 321 322 322 320 319 318 316 315 315
303 297 300 302 307 307 305 302 307 310 310 308 310 311 311 313 318 320 322 325 326 327 327 328 334 336 336 332 328 326 326 323 323 325 322 324 322 323 320 319 320 321 319 318 318 316 316 314 314
297 298 299 299 304 303 302 302 307 309 308 308 309 310 311 312 316 322 321 322 324 328 328 329 332 332 330 328 325 323 322 321 322 321 320 321 319 320 319 317 317 318 315 314 314 314 314 314 314
301 299 298 302 305 302 301 302 305 307 309 309 311 312 312 314 316 318 320 322 324 327 326 326 324 324 322 321 318 317 317 318 318 319 321 319 319 316 315 314 313 313 312 312 312 311 309 310 311
301 300 299 303 304 302 302 302 305 306 307 309 310 311 312 312 314 316 318 319 319 319 320 319 319 319 318 317 317 317 317 318 318 319 316 318 316 315 313 312 310 310 309 309 309 308 308 308 309
302 299 300 299 302 304 302 300 301 305 307 309 310 311 311 311 311 314 316 317 318 318 318 317 317 318 318 318 317 316 316 316 314 314 314 316 315 314 314 313 311 309 308 306 306 306 305 304 306
298 304 302 300 299 294 303 292 299 302 303 306 307 309 309 310 312 313 314 315 317 318 319 318 318 317 317 317 315 315 313 311 312 313 312 312 314 312 309 308 308 307 307 305 306 307 305 303 300
300 304 302 301 299 299 299 296 299 302 300 303 306 308 310 311 312 312 313 315 316 319 319 318 317 316 317 316 316 314 311 311 311 310 310 308 309 308 307 306 305 306 306 306 304 302 300 299 297
305 304 303 302 300 294 298 297 295 299 301 304 307 308 310 311 312 312 314 315 316 319 318 318 316 315 317 315 314 312 310 309 308 308 306 306 305 305 305 305 304 305 305 305 303 302 299 299 297
305 300 295 293 293 292 300 295 298 303 305 306 306 307 309 311 312 312 312 312 314 315 316 316 315 314 315 315 314 313 311 311 308 306 304 302 301 301 301 303 303 303 304 302 301 299 299 298 293
301 299 296 286 288 291 298 292 297 305 306 307 307 308 309 310 312 312 313 313 313 315 314 315 314 312 312 313 311 311 310 308 306 305 302 301 300 300 302 303 303 303 303 301 300 299 299 297 296
300 298 301 295 293 291 292 298 302 304 304 305 306 307 308 309 310 310 312 313 313 313 313 313 312 311 311 310 310 309 308 307 304 303 301 300 300 301 301 301 301 300 298 299 298 297 296 296 297
301 302 295 299 287 284 290 292 294 299 301 304 304 304 307 309 309 310 310 311 311 311 312 313 310 308 308 308 307 305 305 304 303 301 300 300 300 300 299 299 298 298 299 297 297 296 295 296 295
299 298 298 297 295 287 285 289 300 300 302 302 303 305 306 307 308 309 309 310 310 311 311 309 307 306 306 304 304 303 302 302 302 301 300 300 299 299 298 298 298 297 296 296 295 294 294 293 291
301 298 298 294 289 294 292 289 302 302 304 304 304 305 307 307 308 307 308 308 308 308 307 306 306 305 303 302 301 301 301 301 299 299 298 299 298 299 298 297 296 296 295 295 294 292 291 291 290

GFSSGP_sfc_thetae_030.txt.gz
Theta_e
315 310 309 306 296 295 292 295 308 307 310 319 321 317 314 316 313 308 337 340 343 344 346 347 347 350 350 350 350 350 351 349 349 347 346 345 344 343 342 342 342 343 343 344 344 343 341 340 338
313 311 308 301 293 289 293 303 308 312 317 319 319 319 318 316 327 330 331 340 343 344 345 345 346 348 349 349 349 348 349 348 348 346 345 344 343 342 342 341 343 343 342 341 341 340 338 337 337
312 312 300 295 292 288 296 303 306 312 316 315 314 318 317 319 329 330 336 339 340 339 342 343 343 345 347 347 347 348 348 347 347 346 345 345 343 342 341 340 342 341 340 340 338 337 335 335 334
309 304 299 292 290 295 303 305 312 314 315 318 316 312 318 324 324 334 337 336 333 331 334 338 340 343 345 345 346 346 346 345 345 345 345 343 341 340 339 339 340 339 338 337 336 336 336 334 334
308 300 293 291 294 304 306 308 314 313 314 314 316 311 313 326 334 334 332 331 328 326 331 334 338 340 342 342 342 343 343 342 343 343 343 341 340 339 339 338 337 336 335 335 335 334 333 332 332
299 298 291 289 298 304 305 308 315 314 314 314 313 313 312 327 327 327 328 324 327 327 330 334 338 339 340 340 340 339 340 340 340 341 341 340 339 338 337 336 335 334 333 332 331 330 330 330 331
297 294 291 291 294 301 304 306 310 315 315 314 316 310 312 314 322 323 322 322 324 327 328 330 333 335 336 335 335 335 336 337 337 337 337 337 336 336 337 335 334 333 332 330 329 329 329 329 329
300 296 291 292 297 297 302 303 305 308 307 320 319 309 307 312 319 320 321 319 321 323 327 326 328 329 328 329 333 333 333 333 334 334 334 333 334 334 335 334 334 333 331 330 329 329 328 328 327
302 293 288 292 295 299 299 301 302 305 309 310 313 314 315 315 317 316 315 315 318 322 323 325 326 326 327 328 331 333 333 333 332 332 332 329 329 330 332 330 331 332 331 330 330 329 328 326 326
297 291 292 296 299 296 298 299 300 306 311 311 313 317 317 315 315 314 314 315 317 320 323 324 324 325 326 330 329 328 330 329 328 328 328 327 326 326 330 329 330 331 330 330 330 329 329 326 319
295 292 295 298 298 299 298 298 301 304 305 313 312 313 315 313 312 314 315 317 319 322 325 324 326 326 324 325 325 325 327 327 327 328 327 325 326 326 325 322 324 322 326 322 323 322 321 320 318
293 296 298 297 297 297 297 297 298 298 306 317 317 317 315 312 313 314 314 316 319 322 324 324 323 325 323 322 324 325 325 327 327 327 324 321 321 317 318 321 319 318 317 319 318 318 317 316 317
295 296 298 299 300 297 298 297 298 298 310 318 318 317 315 315 315 316 316 318 321 322 324 324 324 323 322 321 320 321 322 325 326 323 322 321 318 316 316 316 315 314 314 313 312 312 312 312 313
298 297 297 297 297 299 298 297 298 297 311 315 316 315 315 316 316 316 314 316 320 324 325 326 325 325 326 322 321 321 323 321 322 321 320 321 319 317 317 314 315 314 314 314 313 312 312 313 313
298 294 296 295 297 295 298 295 295 300 313 314 314 315 315 316 317 317 316 316 320 324 329 328 330 330 328 327 323 319 321 320 320 319 319 320 318 316 314 313 313 313 314 313 312 311 312 311 313
297 295 291 296 298 299 297 291 297 298 306 310 312 313 314 313 313 313 314 315 321 327 330 330 329 327 324 326 324 320 316 314 315 316 316 317 317 315 313 311 311 312 311 310 309 309 308 307 307
293 288 291 294 299 297 296 293 298 298 300 300 299 303 308 310 313 315 316 317 318 322 327 325 325 323 321 324 321 317 315 313 313 313 314 314 316 315 311 309 308 308 307 306 307 305 305 304 304
290 289 293 292 295 295 292 292 297 298 298 298 303 306 308 308 309 312 312 315 316 317 320 320 321 321 323 318 315 312 311 310 311 311 310 311 310 310 308 308 307 306 305 305 303 302 302 302 302
295 292 292 292 296 294 292 293 296 298 302 303 304 305 306 307 309 311 311 311 311 311 312 313 313 311 310 309 309 308 307 308 309 309 310 309 309 309 306 305 304 304 303 302 302 301 300 300 301
297 294 292 295 299 295 292 293 296 299 301 304 304 304 305 306 307 309 309 308 309 310 309 309 309 308 308 308 307 307 306 308 307 307 307 306 305 305 303 301 301 301 302 301 300 299 299 299 298
296 294 293 293 295 295 294 292 296 299 301 303 304 306 307 306 306 307 308 308 307 306 307 308 308 308 307 308 307 307 306 305 304 304 303 303 303 302 302 301 300 299 300 299 299 298 297 295 295
293 299 297 295 291 286 292 283 290 295 297 300 302 302 304 306 307 307 306 306 306 305 306 307 307 308 308 308 307 305 303 302 302 302 301 301 301 301 301 300 299 298 299 299 298 298 295 297 295
296 299 297 296 291 289 290 286 288 297 295 297 298 301 303 304 306 305 306 307 307 307 305 306 308 308 308 308 306 305 303 303 302 301 299 299 299 300 299 300 299 299 299 298 297 296 296 295 293
300 298 297 295 292 283 292 289 287 291 295 298 301 301 302 302 303 305 306 307 306 306 305 305 306 306 307 306 305 303 302 301 299 298 296 297 297 297 297 299 298 298 297 297 296 295 294 293 292
297 293 283 283 281 282 295 291 291 297 301 302 300 300 301 301 302 304 305 305 305 304 304 306 306 305 306 305 303 302 301 299 299 298 295 295 294 294 295 297 296 297 296 295 295 294 293 292 292
294 293 282 280 279 282 292 287 290 300 303 303 303 302 302 301 302 302 302 302 303 303 303 304 304 304 304 303 301 300 301 299 297 296 295 294 293 294 294 296 295 295 295 294 293 293 293 293 291
294 289 294 287 283 280 286 290 296 299 301 303 302 305 303 302 301 301 302 302 302 303 303 301 301 302 301 300 298 297 298 297 295 295 295 294 294 296 294 294 294 294 294 294 293 291 291 291 290
295 297 288 285 279 279 284 287 290 295 297 300 299 299 300 300 300 301 301 302 302 302 301 300 300 298 297 297 296 296 296 296 295 294 294 294 294 294 294 293 294 294 294 293 292 290 290 289 289
292 291 291 290 284 279 277 282 293 296 299 298 298 300 299 300 300 300 299 300 299 300 299 298 298 297 296 295 295 295 295 295 294 293 293 293 293 293 294 293 293 293 292 292 290 290 290 288 286
294 293 292 282 283 281 280 282 296 297 297 298 299 299 299 298 298 298 298 298 298 297 297 298 297 296 295 295 295 294 295 294 293 292 292 292 292 293 293 291 288 288 288 288 287 287 285 283 282

GFSSGP_sfc_thetae_033.txt.gz
Theta_e
317 309 308 306 296 293 288 293 305 307 311 316 319 317 315 318 314 308 334 339 343 343 344 345 346 348 348 349 350 350 350 348 347 345 344 344 343 342 341 342 343 343 344 342 341 341 340 339 338
310 310 306 300 292 286 292 301 305 312 315 318 318 318 318 318 330 331 333 341 344 344 344 346 347 348 348 348 349 349 348 347 346 345 344 343 342 342 341 341 341 340 340 340 338 337 336 335 334
311 309 299 295 291 289 293 303 311 315 318 316 315 318 318 323 329 329 336 342 343 342 343 345 345 346 347 347 347 348 347 347 346 345 344 343 342 341 339 340 340 339 338 336 336 336 335 334 334
308 303 298 292 291 293 299 304 314 313 316 318 317 313 318 327 328 333 338 338 335 334 337 340 342 343 345 346 347 346 346 345 345 345 344 342 340 338 338 339 338 337 335 335 335 334 333 332 331
305 299 292 289 292 299 304 308 313 311 313 315 316 311 314 329 334 334 333 334 331 329 333 337 339 342 344 344 345 344 344 344 343 343 342 339 338 338 338 338 336 334 334 333 332 331 331 330 331
298 297 289 291 298 302 304 314 314 312 313 315 314 312 312 330 330 329 330 327 329 328 330 333 339 340 341 342 341 340 340 340 340 341 341 340 339 338 336 335 334 333 331 330 329 329 329 329 329
296 292 288 290 300 301 304 311 312 312 313 313 316 307 315 322 326 326 322 322 326 327 327 329 332 335 337 336 336 336 337 337 338 338 338 337 336 336 336 335 333 331 330 329 329 328 328 328 328
298 295 291 291 297 300 308 304 312 314 311 317 315 306 309 315 321 319 319 320 322 323 326 325 327 327 327 328 333 333 334 334 334 335 334 333 333 334 334 333 334 332 330 330 329 328 327 327 327
297 292 289 292 297 297 303 300 303 312 313 312 313 312 318 318 318 315 313 315 318 322 323 324 325 325 325 325 330 332 333 333 332 332 332 329 327 328 330 330 331 332 331 330 330 329 328 327 326
296 291 292 296 301 301 298 308 307 309 309 310 308 311 315 315 314 312 311 313 316 318 321 323 323 323 325 329 327 326 329 328 327 327 327 326 324 324 329 329 331 331 331 331 330 330 329 327 319
295 291 295 297 299 298 297 300 303 309 306 310 307 309 311 313 313 312 312 314 315 319 321 323 322 322 323 324 325 324 326 326 326 326 324 324 325 324 324 322 321 320 323 320 321 320 319 318 316
293 296 297 297 298 298 297 297 304 299 310 314 313 312 311 312 312 313 313 315 316 319 321 322 323 323 321 322 324 323 324 325 325 326 326 323 321 319 318 320 318 315 313 313 314 313 313 312 312
294 295 297 297 298 295 298 297 298 297 311 315 314 312 311 312 312 315 316 317 318 320 322 322 323 323 322 320 321 322 323 326 326 326 323 320 317 315 315 314 313 313 312 312 312 311 311 311 312
297 295 295 296 297 297 297 295 296 298 313 314 314 312 311 312 312 313 313 315 319 321 322 321 322 323 322 319 319 320 321 323 324 323 320 320 317 315 315 312 313 312 312 312 310 309 309 308 309
296 293 294 294 295 294 297 293 294 301 314 313 313 313 313 312 312 311 313 313 320 322 323 322 323 324 323 321 320 318 320 319 320 320 318 318 317 315 313 312 310 311 310 308 308 307 306 305 306
295 293 289 294 296 296 295 290 295 305 311 311 311 310 309 310 312 312 313 313 317 323 324 325 329 324 323 323 321 317 314 312 315 315 315 315 315 313 311 309 308 307 306 306 305 304 303 302 302
291 287 289 293 296 294 294 291 295 300 310 303 302 305 308 307 309 312 316 317 321 326 325 324 325 322 324 319 315 313 310 310 310 311 310 311 310 309 307 306 305 305 304 304 303 302 302 300 300
287 289 290 290 293 294 291 291 294 295 298 301 303 304 305 305 306 309 311 315 316 316 319 320 321 323 321 314 312 309 309 308 308 307 307 306 306 305 303 303 303 305 303 302 301 300 300 299 299
293 290 289 290 294 293 290 292 294 298 302 301 302 303 304 305 306 309 310 310 311 312 314 316 315 311 310 310 312 309 305 305 305 305 305 304 304 305 303 302 300 301 300 300 300 299 298 298 297
295 291 290 293 296 294 292 292 296 299 300 302 302 302 303 303 305 306 308 309 310 311 308 307 307 307 307 307 306 306 305 304 303 302 302 303 303 302 300 299 298 299 300 298 297 298 298 297 296
295 292 291 291 293 294 292 290 294 298 301 303 303 303 304 304 304 306 308 307 306 305 305 306 306 306 307 307 306 305 304 304 302 301 300 300 300 300 299 298 298 298 298 297 297 296 295 294 294
292 297 295 293 289 285 291 282 289 294 296 299 301 301 302 304 306 307 305 303 303 304 304 305 306 306 306 306 305 304 302 301 301 299 299 298 299 298 299 299 299 298 298 297 296 297 294 293 291
294 297 294 294 289 287 289 285 286 294 293 296 298 301 303 305 304 305 306 305 305 304 303 304 305 306 306 306 305 303 302 302 301 299 297 297 297 298 299 299 298 297 297 296 295 293 293 293 291
298 296 295 293 290 282 289 286 285 290 294 296 298 301 303 304 305 305 306 306 304 304 303 303 304 305 305 304 304 303 301 299 297 296 297 296 295 295 297 297 296 296 295 295 294 293 292 291 290
296 291 282 282 281 281 291 289 288 294 297 298 299 300 302 303 303 303 304 305 306 304 303 303 303 303 303 302 301 301 299 298 297 296 294 293 293 293 294 295 295 295 295 294 293 292 291 290 289
293 291 282 281 279 281 290 285 289 297 300 301 301 300 300 300 302 304 305 304 303 302 302 301 303 302 302 300 299 300 299 297 296 295 294 293 293 293 293 294 294 294 293 293 292 291 291 290 289
293 287 292 285 282 279 284 288 295 297 298 299 299 300 302 300 299 300 300 301 301 301 300 299 300 300 300 298 297 298 298 296 295 294 293 293 293 294 293 293 293 293 293 293 292 290 290 289 288
293 295 287 284 278 279 282 285 286 292 295 299 301 300 298 298 299 299 299 299 300 300 299 299 299 297 296 296 295 295 295 296 295 294 293 293 293 293 293 292 292 292 292 292 290 289 289 287 287
291 289 289 288 283 278 276 281 291 295 297 297 297 297 297 297 297 297 298 298 298 298 296 296 296 295 294 294 294 294 294 294 293 293 293 293 292 292 293 293 292 292 292 291 290 288 288 285 283
292 291 289 280 282 280 279 281 293 295 298 297 296 296 295 297 297 297 297 297 297 295 295 296 296 295 295 294 293 292 294 294 293 292 292 292 291 292 292 291 289 289 289 288 286 285 284 283 282

GFSSGP_sfc_thetae_036.txt.gz
Theta_e
315 308 306 303 295 293 287 293 303 307 310 316 321 317 317 322 316 307 334 339 342 343 342 344 346 348 349 350 350 350 349 347 346 344 345 344 343 342 342 343 343 343 341 340 339 338 337 336 336
307 307 303 300 292 287 289 297 305 310 315 320 319 320 320 319 330 330 333 342 343 342 342 343 346 347 349 349 349 349 348 346 345 345 344 342 342 342 342 341 340 340 339 337 336 335 335 335 334
312 306 296 294 291 287 292 303 311 315 316 316 314 317 320 323 329 330 338 342 343 343 344 344 344 345 347 348 348 348 347 346 345 345 343 342 342 340 339 339 339 338 335 334 334 334 333 332 331
305 299 295 290 289 293 297 309 314 313 315 317 317 313 320 328 328 333 340 341 339 340 343 341 342 344 346 347 347 346 346 345 344 344 343 342 339 338 339 339 337 335 334 333 332 331 331 330 330
301 294 289 286 289 295 299 311 313 311 313 314 316 311 316 328 334 336 337 337 336 336 338 338 340 343 346 346 345 345 344 344 344 344 342 339 338 338 338 336 334 334 332 331 330 329 329 329 330
295 293 287 289 295 301 309 313 314 312 313 314 315 312 316 330 331 333 335 332 333 331 332 335 341 342 343 344 343 342 342 342 341 341 340 339 338 338 335 334 333 332 330 329 329 329 329 329 329
293 290 286 293 296 300 307 312 312 312 312 312 316 311 321 327 327 327 326 325 326 326 327 329 332 336 338 338 338 337 338 338 338 338 338 337 336 336 335 334 332 331 330 330 330 329 329 330 329
296 294 289 291 297 299 304 310 316 314 311 316 318 313 317 322 323 321 320 319 321 323 325 324 326 328 328 330 334 334 335 335 335 335 334 333 333 333 333 332 332 331 331 331 332 330 330 329 328
298 291 288 291 298 301 307 306 304 313 312 312 312 316 321 321 318 316 314 316 318 322 322 322 323 324 324 325 330 333 334 333 333 333 332 329 326 326 327 330 330 332 331 331 331 331 330 328 325
296 291 291 297 301 305 308 308 309 310 309 307 308 314 318 317 315 312 312 313 315 318 321 322 321 322 323 327 327 325 328 327 327 327 326 325 323 323 327 328 330 331 330 329 328 327 326 322 317
294 293 295 297 301 300 301 302 307 308 305 307 308 311 313 313 310 310 311 313 315 317 320 322 322 321 321 324 324 323 324 324 324 324 324 324 324 323 323 321 320 319 322 316 318 316 316 314 313
293 295 296 296 298 299 302 300 308 302 307 313 314 313 312 310 309 309 310 311 313 316 319 321 321 320 320 321 322 322 323 324 323 324 325 322 321 319 319 319 317 313 312 312 311 311 311 311 312
293 295 296 296 296 298 298 297 305 295 310 311 313 312 310 309 310 311 311 313 313 315 318 320 321 320 320 320 320 320 322 323 324 324 324 321 319 316 314 313 312 311 312 311 310 309 309 308 308
296 295 294 294 295 295 296 294 295 298 310 309 311 309 309 311 311 311 312 313 314 317 319 321 321 322 321 318 319 319 320 321 323 323 320 319 316 314 313 311 310 310 309 308 307 307 305 304 305
295 292 295 295 294 294 296 291 292 305 310 309 308 309 308 309 309 309 310 312 315 318 320 320 322 322 322 319 318 318 319 319 319 318 317 316 315 312 310 308 307 306 306 305 305 304 303 302 303
293 292 288 292 294 294 293 287 292 308 310 307 308 309 308 310 311 312 313 311 316 319 321 324 324 323 322 318 318 316 313 312 313 313 312 310 310 308 306 304 303 304 304 304 303 302 302 301 300
290 287 287 291 294 293 293 290 293 305 307 302 303 305 306 306 307 308 315 315 316 322 323 322 322 323 320 315 313 314 311 308 309 308 306 305 306 305 303 302 302 302 302 303 302 301 300 299 300
287 287 289 288 291 293 291 290 295 296 302 301 302 303 303 304 304 308 311 316 317 319 321 322 323 321 316 315 313 309 308 305 305 303 303 304 305 305 304 301 301 301 300 299 299 298 299 298 298
291 288 287 288 292 292 292 292 295 298 300 300 300 301 302 303 305 307 309 311 313 314 318 320 320 320 315 312 308 305 304 302 302 301 302 303 302 301 299 298 298 298 298 297 298 298 297 297 296
292 289 288 291 294 294 292 291 295 298 298 299 299 299 300 302 304 306 307 309 311 312 312 310 307 307 307 306 304 304 302 301 301 300 300 300 300 299 299 297 297 297 297 298 297 296 295 296 294
293 290 289 290 292 293 291 289 292 297 300 302 301 301 301 302 303 306 307 305 304 303 303 304 305 305 306 306 304 303 303 301 300 299 298 298 299 298 298 298 298 298 298 297 296 294 293 292 293
290 295 293 291 288 285 289 283 288 293 296 298 300 300 300 302 304 305 303 302 302 303 303 304 305 305 305 305 303 301 300 299 299 298 297 296 297 297 299 298 298 297 297 295 295 296 293 292 290
292 296 294 292 288 286 287 285 286 294 294 296 298 299 300 302 303 303 303 304 302 302 302 302 304 305 305 305 303 302 300 299 298 297 296 296 296 297 298 298 297 296 296 295 294 293 292 292 290
296 295 293 291 288 282 287 285 284 289 293 296 298 300 301 302 302 303 304 304 302 302 301 302 304 303 304 303 303 302 300 297 296 295 295 295 294 294 296 296 295 295 294 294 293 292 292 291 290
295 290 282 281 280 281 289 286 287 292 295 298 298 299 301 302 302 302 304 303 303 304 304 303 302 302 302 301 301 300 299 298 297 296 294 293 293 292 292 293 294 294 294 293 292 291 291 290 288
291 290 283 281 278 281 289 284 289 295 298 300 301 300 300 300 302 302 305 305 302 302 301 301 302 301 300 300 299 299 298 296 296 295 294 293 292 292 293 293 293 293 293 292 292 291 290 290 288
291 286 290 284 282 278 283 288 293 295 296 298 298 299 299 300 301 299 300 300 300 299 299 300 300 300 299 298 298 298 297 296 295 294 292 292 292 294 293 292 292 292 292 292 292 290 291 290 289
291 294 286 283 277 278 280 283 285 291 294 296 297 297 298 297 297 297 298 298 299 297 297 298 298 297 297 295 294 294 294 294 294 293 292 292 292 292 291 291 291 291 293 292 292 291 289 289 288
290 288 287 287 282 278 274 281 290 294 296 296 296 298 296 296 295 295 296 296 296 295 296 296 295 295 294 293 293 292 292 293 293 292 292 292 292 291 291 291 291 292 290 291 291 290 288 287 284
291 289 287 279 280 279 278 280 291 293 296 297 295 296 295 295 295 294 295 295 295 295 295 295 295 296 293 292 292 291 291 291 291 291 292 291 290 290 290 290 289 288 288 289 287 286 286 283 282

GFSSGP_sfc_thetae_039.txt.gz
Theta_e
316 311 311 310 301 299 294 296 307 312 314 321 323 320 319 323 317 311 337 342 344 343 345 347 345 348 348 350 350 349 349 347 346 345 345 344 343 343 344 344 343 341 340 338 337 336 337 336 334
313 310 310 306 298 293 293 300 309 314 319 322 320 322 320 318 330 331 334 343 344 343 345 346 346 348 349 349 349 348 348 346 346 345 344 342 343 343 342 341 342 339 337 335 334 334 332 332 331
313 310 305 301 297 293 295 309 314 318 320 317 315 320 317 321 330 331 340 343 343 344 345 346 345 346 348 348 348 347 347 346 346 344 343 343 342 340 340 340 340 337 334 333 332 332 331 330 330
310 307 303 298 296 297 303 314 316 314 317 319 318 313 325 332 331 336 343 343 342 342 345 344 342 345 347 348 347 347 346 345 344 344 343 341 339 339 339 337 337 334 332 331 330 329 329 329 331
306 303 298 295 295 300 306 317 316 313 314 315 316 312 318 330 337 339 341 341 340 341 344 346 340 344 346 347 346 345 344 344 344 344 342 339 338 338 336 335 334 333 331 330 330 329 329 330 331
304 301 296 298 300 304 312 316 315 314 315 316 316 317 320 333 334 335 337 338 339 340 343 345 343 343 343 344 343 342 342 342 342 341 340 339 338 337 334 334 333 332 331 330 330 329 329 330 329
301 298 295 299 302 307 312 318 314 313 314 314 320 316 323 328 332 336 336 337 339 340 341 342 343 343 341 339 339 339 339 339 339 338 338 337 336 335 335 334 333 331 332 332 331 331 331 330 329
302 300 296 300 301 304 311 314 314 313 312 319 323 315 318 326 331 334 334 333 334 334 336 337 338 340 341 341 336 335 336 335 336 336 335 333 333 333 333 331 333 333 332 332 332 332 331 330 327
302 298 294 298 304 305 310 310 310 316 314 315 313 323 327 327 328 328 327 327 327 327 330 332 333 334 335 335 335 335 335 334 333 333 332 330 334 334 333 330 331 332 332 331 331 330 328 326 324
302 297 297 301 310 308 311 311 310 313 313 310 314 322 325 325 327 324 321 320 321 324 326 329 331 330 331 330 335 335 334 334 334 333 334 334 334 335 334 332 329 329 327 325 326 325 324 324 324
300 298 300 300 308 310 308 308 313 312 311 312 314 319 322 323 321 320 318 317 319 323 325 328 329 329 329 330 332 331 332 333 333 333 333 333 334 335 335 335 333 330 322 324 323 323 322 322 321
298 299 299 299 302 305 307 310 312 313 311 316 321 323 321 320 318 316 315 316 318 321 325 327 328 328 328 329 330 331 331 331 332 333 333 335 333 334 333 331 325 324 323 323 322 321 320 318 317
298 298 298 299 300 305 304 309 312 306 313 319 320 321 320 319 316 315 315 317 319 320 324 327 328 327 327 327 329 330 330 331 333 333 334 333 332 328 325 323 322 321 321 319 318 317 316 315 314
299 298 297 297 299 300 300 300 306 306 313 316 317 316 316 315 313 313 314 315 318 321 324 327 328 329 328 326 326 326 328 329 331 332 329 328 326 325 322 320 317 316 316 316 316 314 314 312 312
299 297 299 299 300 299 301 297 297 309 313 314 314 313 313 313 314 314 316 317 319 321 325 326 329 328 325 323 322 321 319 323 326 325 325 323 322 321 318 316 315 314 315 315 314 313 313 311 310
297 297 294 298 299 299 299 293 298 312 311 311 311 312 312 314 315 317 319 318 321 324 327 328 327 324 324 322 322 317 316 318 318 320 319 317 316 315 314 312 312 312 312 311 310 309 308 308 307
296 291 293 295 299 299 298 294 300 307 311 309 310 311 312 312 313 315 320 322 322 327 326 326 326 324 323 318 314 314 314 314 313 312 311 312 311 312 311 310 310 310 309 308 308 307 307 305 306
292 292 293 294 297 299 296 296 300 304 309 307 308 309 309 310 310 314 319 322 324 325 324 325 324 321 316 313 313 314 311 310 310 310 309 311 310 310 309 308 308 308 307 307 307 307 307 307 306
295 294 293 295 296 298 296 297 299 303 306 306 306 308 308 308 311 316 318 322 325 327 327 322 322 321 317 313 312 309 310 308 308 309 309 309 308 308 309 307 307 307 305 306 306 305 304 303 304
295 294 294 295 297 299 297 297 300 302 303 305 306 307 308 311 313 314 316 319 323 324 325 325 320 319 317 315 314 314 311 310 309 308 308 308 307 307 306 307 306 306 304 304 304 304 301 302 303
296 295 294 294 297 297 297 295 298 301 303 304 305 307 310 311 311 311 312 314 316 318 319 322 320 317 317 315 313 311 311 309 307 307 307 306 306 306 306 306 307 306 305 302 303 303 301 298 301
295 298 296 294 294 292 295 290 295 299 300 303 304 306 308 309 310 309 308 308 310 311 312 313 313 313 313 313 313 312 312 310 309 308 306 306 305 305 306 306 306 306 305 303 302 303 302 301 297
296 299 297 295 294 293 293 292 293 298 299 301 304 305 306 308 309 308 308 309 310 311 311 312 312 312 312 313 313 312 309 308 307 306 305 306 306 304 305 305 305 305 304 304 303 302 302 302 298
300 299 297 296 294 289 291 291 291 295 299 302 304 305 306 307 308 308 309 309 309 310 311 312 311 310 311 312 311 311 309 307 306 306 306 305 304 303 304 304 304 304 304 303 302 302 301 300 299
299 296 289 288 288 287 292 291 295 297 299 305 304 305 306 308 308 308 308 308 309 309 309 310 311 309 309 310 310 310 309 308 307 306 305 303 303 303 303 303 303 302 303 302 302 301 300 299 298
296 296 291 283 285 288 291 289 295 299 301 306 306 306 307 307 308 308 309 309 310 310 310 309 309 307 307 308 307 308 307 308 306 304 303 303 302 302 303 302 302 301 301 301 300 300 299 299 298
295 292 295 288 285 285 289 293 297 299 299 302 304 304 306 307 307 308 309 309 308 307 307 308 308 307 306 305 306 306 305 304 303 303 303 302 302 300 301 301 300 300 300 300 300 299 297 297 296
297 297 291 290 282 281 285 287 291 295 297 300 302 304 305 305 304 305 305 305 305 305 305 306 306 304 304 303 302 301 301 300 301 301 301 301 301 300 300 300 300 299 299 299 298 297 296 295 295
295 293 291 291 288 283 281 286 296 298 300 300 303 304 304 303 302 302 302 302 302 302 303 303 302 300 300 300 300 300 300 299 300 299 299 299 299 298 298 298 298 298 296 295 295 294 293 292 292
296 294 293 287 284 285 285 287 295 298 300 301 302 302 302 301 300 300 300 300 301 301 302 300 300 299 299 299 299 298 298 298 297 297 297 298 297 298 297 297 296 295 294 293 292 291 291 289 288

GFSSGP_sfc_thetae_042.txt.gz
Theta_e
321 318 317 316 306 305 302 303 316 317 317 324 325 323 322 326 320 315 339 342 344 345 346 347 346 348 349 349 350 350 349 347 346 346 345 344 344 345 345 343 342 340 338 337 336 335 333 332 331
316 314 315 314 302 299 302 305 311 319 323 323 323 323 321 320 331 332 336 343 344 344 346 347 345 347 349 349 349 349 348 347 346 345 344 343 344 343 341 341 341 338 335 334 332 331 330 330 331
317 314 311 307 304 300 301 311 319 321 322 319 315 321 318 319 332 333 341 344 343 344 347 348 345 346 348 348 347 348 347 347 346 345 343 343 341 340 340 338 339 337 334 332 331 330 329 330 330
313 313 311 302 301 303 307 318 322 318 320 320 317 314 324 332 331 337 343 343 343 344 347 345 343 345 347 347 348 347 347 345 345 344 343 340 339 339 337 337 337 333 332 331 330 329 328 330 331
315 311 302 300 301 304 312 320 320 317 316 315 316 313 320 333 338 342 343 342 342 343 346 347 341 343 346 348 347 346 345 344 344 344 342 339 339 337 335 335 334 333 331 331 330 330 330 330 330
307 309 299 298 302 307 317 320 319 317 315 315 314 317 322 335 337 340 342 342 343 343 344 345 344 344 345 346 344 343 343 343 342 341 341 339 338 336 334 333 332 331 331 331 330 330 331 331 330
306 303 300 302 304 308 316 321 315 314 315 316 322 316 325 331 337 339 341 341 344 344 344 345 345 344 341 340 340 340 341 340 339 339 338 337 336 335 335 334 332 332 332 331 331 331 331 330 328
310 306 302 306 306 309 318 315 316 311 314 324 325 316 320 328 335 339 340 342 343 344 341 339 339 340 341 342 338 338 337 336 336 336 335 333 333 333 332 333 333 332 332 331 331 330 329 327 326
310 302 301 307 309 309 317 312 315 318 317 319 320 324 331 334 336 337 336 338 338 336 337 336 335 337 337 337 338 335 336 335 334 334 333 331 334 334 333 331 332 332 330 329 329 327 326 327 326
306 302 302 311 315 311 310 313 313 314 314 314 320 330 334 335 334 332 331 330 328 327 329 332 333 333 334 330 335 335 333 334 336 335 336 336 338 337 334 332 329 328 325 326 325 325 326 326 326
306 302 306 305 314 313 309 314 317 313 313 317 318 327 330 332 331 331 326 322 321 325 326 329 332 334 332 332 332 332 334 336 338 339 339 339 339 340 339 338 336 335 326 330 329 329 327 325 324
302 305 304 306 314 311 312 316 315 316 314 320 323 331 331 329 328 324 319 319 321 324 326 329 331 333 333 331 332 334 335 337 338 339 340 341 338 341 339 336 334 333 331 330 328 327 325 323 320
303 303 304 311 311 310 314 313 314 313 319 324 329 329 326 324 321 318 318 320 324 325 327 329 330 331 332 333 334 335 338 338 339 340 339 338 338 337 335 334 332 329 328 326 324 323 321 320 319
305 301 302 305 309 308 310 312 315 313 321 323 326 324 321 319 317 317 317 319 324 327 329 332 332 332 333 333 334 332 332 333 337 337 335 331 332 331 332 331 328 326 323 322 321 319 318 317 317
302 298 300 302 305 305 311 307 302 313 319 320 321 320 318 317 316 316 317 318 323 328 331 332 333 333 332 331 330 328 327 329 328 331 331 330 331 331 329 325 322 319 318 318 317 316 317 315 315
300 301 297 301 306 303 305 298 304 315 316 317 318 317 317 317 316 319 320 321 323 327 331 332 332 331 330 327 323 322 322 324 326 327 327 325 324 322 319 318 316 316 316 315 315 314 313 312 311
300 295 297 298 303 304 303 299 305 315 315 315 316 317 317 318 319 321 324 325 326 329 332 330 332 330 328 326 321 321 318 319 319 318 317 316 315 316 315 315 316 316 314 313 311 309 309 307 307
296 295 297 297 301 303 301 302 305 313 314 314 316 317 317 317 318 322 326 327 328 332 332 331 331 322 319 321 320 317 315 313 313 313 314 314 314 315 316 315 315 313 310 308 308 307 307 307 307
301 299 297 300 302 302 301 302 304 312 314 314 315 316 317 317 320 325 327 329 329 329 330 330 328 325 323 326 320 315 312 314 315 316 315 315 315 315 315 312 310 309 307 307 307 306 305 304 306
300 299 299 300 301 303 303 303 305 308 312 314 315 316 317 318 322 323 327 329 329 328 329 329 330 331 329 325 322 320 318 318 317 316 315 314 314 312 310 310 308 308 306 307 306 306 303 303 304
300 299 299 299 301 304 303 301 303 306 309 311 314 317 318 320 321 323 325 328 329 329 330 329 328 327 324 322 320 319 318 316 314 314 313 313 312 311 309 309 308 308 307 305 306 305 304 300 302
298 302 301 300 299 296 302 293 302 305 305 308 311 315 318 319 319 319 319 322 324 326 326 323 323 322 321 321 319 318 317 315 316 318 315 314 311 309 308 308 308 308 307 306 306 304 304 303 299
300 303 302 300 300 299 298 295 300 304 303 305 310 314 317 317 316 314 314 316 317 319 320 321 320 319 319 319 318 319 317 316 316 315 312 313 312 309 307 307 308 308 307 307 306 305 304 303 300
305 303 303 302 301 293 297 296 296 301 304 307 310 314 315 315 314 313 315 315 316 318 319 319 318 317 318 319 318 317 315 313 312 312 309 309 308 308 307 307 307 307 307 306 305 305 303 302 301
304 300 293 291 291 290 297 295 297 302 305 309 310 313 314 313 313 313 313 314 315 316 317 318 317 316 317 317 316 315 313 310 308 307 306 306 305 305 306 307 306 305 305 305 305 303 302 301 299
300 299 293 283 287 292 296 293 300 305 307 309 313 314 313 312 313 313 314 315 315 316 317 316 316 315 315 314 313 311 308 310 308 307 307 306 305 306 306 306 305 304 303 303 303 302 302 301 300
300 297 301 294 291 291 295 298 303 304 304 307 311 312 311 312 313 314 315 315 316 316 317 317 315 313 312 311 310 308 310 308 307 307 307 307 306 304 302 302 301 301 301 302 302 301 300 299 298
303 303 295 297 285 283 290 292 296 300 302 305 309 310 310 312 313 314 314 315 315 315 314 315 313 310 308 307 306 306 306 306 307 308 305 302 301 300 300 300 299 299 300 301 301 299 299 297 296
299 298 297 297 295 287 286 292 302 302 304 305 309 310 311 312 312 313 313 313 312 311 311 310 308 306 306 304 304 305 305 305 305 303 300 300 300 299 299 298 299 298 298 299 298 297 297 295 295
301 299 299 292 289 293 292 291 301 304 307 308 308 310 312 313 312 311 310 310 308 308 308 307 307 305 304 302 303 302 302 302 300 299 299 300 299 299 298 298 297 298 297 297 296 295 295 293 292